Regional Weather Roundup
Issued by NWS Charleston, SC

Current Version | Previous Version | Text Only | Print | Product List | Glossary Off
Versions: 1 2 3 4 5 6 7 8 9 10 11 12 13 14 15 16 17 18 19 20 21 22 23 24 25 26 27 28 29 30 31 32 33 34 35 36 37 38 39 40 41 42 43 44 45 46 47 48 49 50
000 ASUS42 KCHS 300212 RWRCHS REGIONAL WEATHER ROUNDUP NATIONAL WEATHER SERVICE CHARLESTON SC 1000 PM EDT SAT AUG 29 2015 NOTE: "FAIR" INDICATES FEW OR NO CLOUDS BELOW 12,000 FEET WITH NO SIGNIFICANT WEATHER AND/OR OBSTRUCTIONS TO VISIBILITY. NOT ALL STATIONS ARE QUALITY CONTROLLED BY THE NATIONAL WEATHER SERVICE. USE DATA WITH CAUTION...ESPECIALLY DEWPOINT OBSERVATIONS. SCZ027-030-031-034>040-042>050-300300- ...SOUTHEAST SOUTH CAROLINA... CITY SKY/WX TMP DP RH WIND PRES REMARKS N CHARLESTON MOCLDY 76 71 85 N5 30.13R WATERFRONT PRK N/A 80 74 82 VRB3 30.10R MOUNT PLEASANT FAIR 75 73 94 CALM 30.13R JOHNS ISLAND FAIR 77 73 88 CALM 30.13R PINOPOLIS N/A 82 66 57 CALM 30.05R MONCKS CORNER FAIR 72 68 88 CALM 30.14R SUMMERVILLE FAIR 72 68 88 CALM 30.14S BEAUFORT MCAS CLOUDY 77 71 82 NE6 30.12S BEAUFORT ARPT FAIR 79 73 83 CALM 30.11S HILTON HEAD IS CLOUDY 81 73 78 N5 30.13R WALTERBORO CLOUDY 73 68 83 CALM 30.14S ALLENDALE FAIR 73 64 73 CALM 30.12S ...SOUTHERN MIDLANDS AND PEE DEE... CITY SKY/WX TMP DP RH WIND PRES REMARKS GEORGETOWN NOT AVBL KINGSTREE NOT AVBL ORANGEBURG CLOUDY 74 59 59 CALM 30.14S BARNWELL FAIR 73 68 83 CALM 30.14S AIKEN FAIR 75 52 43 E3 30.18R MANNING FAIR 68 61 77 CALM 30.14R COLUMBIA CLOUDY 79 57 46 E3 30.14R SUMTER CLOUDY 76 60 58 CALM 30.13R FLORENCE CLOUDY 74 62 66 CALM 30.14R MYRTLE BEACH MOCLDY 79 66 65 N6 30.14R N MYRTLE BEACH CLOUDY 75 70 84 CALM 30.13R $$ GAZ063-065-086>088-099>101-113>116-118-119-134>141-150-300300- ...SOUTHEAST GEORGIA... CITY SKY/WX TMP DP RH WIND PRES REMARKS SAVANNAH ARPT CLOUDY 77 71 82 NE3 30.12R HUNTER AAF CLOUDY 76 75 97 NE1 30.09R FORT STEWART CLOUDY 77 72 83 CALM 30.09S STATESBORO CLOUDY 74 71 91 CALM 30.12R SYLVANIA DRIZZLE 73 71 92 CALM 30.13R CLAXTON NOT AVBL ...CSRA...CENTRAL AND FAR SOUTHEAST GEORGIA... CITY SKY/WX TMP DP RH WIND PRES REMARKS THOMSON CLOUDY 76 67 74 E3 30.19R AUGUSTA-BUSH CLOUDY 72 68 87 E5 30.12R AUGUSTA-DANIEL CLOUDY 79 61 53 E6 30.15R SWAINSBORO FAIR 75 72 88 E5 30.13R VIDALIA CLOUDY 73 70 88 E3 30.12R EASTMAN FAIR 75 75 100 CALM 30.13R HAZLEHURST FAIR 76 76 100 E3 30.10R ALMA CLOUDY 74 73 97 VRB6 30.10R WAYCROSS CLOUDY 77 77 99 E6 30.10R JESUP RAIN 77 75 94 E6 30.11R BAXLEY FAIR 77 73 88 E3 30.10R BRUNSWICK CLOUDY 79 75 89 CALM 30.10S SAINT SIMONS CLOUDY 80 74 81 E8 30.09R $$ SCZ027-028-034-036>038-045-046-048>050-GAZ119-141-300300- ...LAKE AND SUPPLEMENTAL COASTAL OBSERVATIONS... STATION/POSITION TIME TEMP WIND PRES WAVE SWELL AIR SEA DIR/SP/G HT/PER HT/PER/DIR (UTC) (F) (DEG/KT/KT) (MB) (FT/S) (FT/S/D) UPR LAKE MARION NOT AVBL WINYAH BAY 0045 80 90/ 6 1019.0 LAKE MURRAY 0100 81 100/ 6/ 7 1020.0R ACE BASIN NERRS NOT AVBL FORT PULASKI NOT AVBL SAPELO ISLAND 0100 80 60/ 7 1019.0S $$ ANZ835-935-AMZ111-154-330-350-352-354-370-450-454-472-300300- ...C-MAN AND BUOY OBSERVATIONS... STATION/POSITION TIME TEMP WIND PRES WAVE SWELL AIR SEA DIR/SP/G HT/PER HT/PER/DIR (UTC) (F) (DEG/KT/KT) (MB) (FT/S) (FT/S/D) BUOY 41004 0150 82 85 60/ 10/ 12 1019.1R 4/11 3/11 BUOY 41008 0150 81 85 90/ 12/ 14 1019.0R 4/11 3/110/11 FOLLY BEACH CMAN 0100 80 80/ 10/ 12 1019.7S CAPERS NEARSHORE 0108 81 90/ 12/ 16 1019.7R FRIPP NEARSHORE 0100 81 90/ 10/ 12 1019.0R STATION/POSITION TIME TEMP WIND PRES WAVE SWELL AIR SEA DIR/SP/G HT/PER HT/PER/DIR (UTC) (F) (DEG/KT/KT) (MB) (FT/S) (FT/S/D) 5E ST. MARYS GA 0121 86 N/A 4/12 2/120/12 FRYING PAN BUOY 0150 81 81 70/ 12/ 14 1020.0R 5/11 3/140/11 BUOY 41025 0150 79 82 30/ 16/ 19 1019.0R 5/11 3/ 80/11 CAPE LOOKOUT NC 0100 78 30/ 11/ 14 1019.5R BUOY 41002 0150 83 84 200/ 6/ 6 1019.9R 4/10 5/130/10 BUOY 41010 0120 85 85 130/ 16/ 17 1018.1R ST AUGUSTINE FL 0200 83 86 110/ 10/ 11 1019.0R $$

USA.gov is the U.S. government's official web portal to all federal, state and local government web resources and services.